Skip Page Navigation
NASA JPL Caltech
NASA Logo - Jet Propulsion Laboratory + View the NASA Portal
+ Near-Earth Object (NEO) Program
Search JPL
JPL Home Earth Solar System Stars & Galaxies Technology
JPL Solar System Dynamics
BODIES ORBITS EPHEMERIDES TOOLS PHYSICAL DATA DISCOVERY FAQ SITE MAP
JPL Small-Body Database Browser
Search: [ help ]  
21619 Johnshopkins (1999 JN136)
Classification: Main-belt Asteroid          SPK-ID: 2021619
Ephemeris | Orbit Diagram | Orbital Elements | Physical Parameters | Discovery Circumstances ]

[ hide orbit diagram ]
Orbit Diagram
Note: Make sure you have Java enabled on your browser to see the applet. This applet is provided as a 3D orbit visualization tool. The applet was implemented using 2-body methods, and hence should not be used for determining accurate long-term trajectories (over several years or decades) or planetary encounter circumstances. For accurate long-term ephemerides, please instead use our Horizons system.
Orbit Viewer

Additional Notes: the orbits shown in the applet are color coded. The planets are white lines, and the asteroid/comet is a blue line. The bright white line indicates the portion of the orbit that is above the ecliptic plane, and the darker portion is below the ecliptic plane. Likewise for the asteroid/comet orbit, the light blue indicates the portion above the ecliptic plane, and the dark blue the portion below the ecliptic plane.

Orbit Viewer applet originally written and kindly provided by Osamu Ajiki (AstroArts), and further modified by Ron Baalke (JPL).


Orbital Elements at Epoch 2456400.5 (2013-Apr-18.0) TDB
Reference: MPO231566 (heliocentric ecliptic J2000)
 Element Value Uncertainty (1-sigma)   Units 
e 0.0691056 n/a  
a 2.2647507 n/a AU
q 2.1082437 n/a AU
i 5.50268 n/a deg
node 311.70117 n/a deg
peri 182.79765 n/a deg
M 113.06751 n/a deg
tp 2456009.5111582
(2012-Mar-23.01115820)
n/a JED
period 1244.8844327
3.41
n/a
n/a
d
yr
n 0.28918347 n/a deg/d
Q 2.4212577 n/a AU
  Orbit Determination Parameters
   # obs. used (total)      705  
   first obs. used      1995-??-??  
   last obs. used      2012-05-20  
   # oppositions      12  
   planetary ephem.      DE403  
   condition code      0  
   fit RMS      0.54  
   data source      MPC:mpn  
   producer      MPCLINUX  

Additional Information
 T_jup = 3.608 

Ephemeris | Orbit Diagram | Orbital Elements | Physical Parameters | Discovery Circumstances ]

Physical Parameter Table
Parameter Symbol Value Units Sigma Reference Notes
absolute magnitude H 15.2 mag n/a PDS3 (MPO 8809)  

21619 Johnshopkins           Discovered 1999 May 9 by the Lowell Observatory Near-Earth Object Search at the Anderson Mesa Station.
Johns Hopkins (1795-1873) was a wealthy entrepreneur and philanthropist of Baltimore, Maryland. He is best known for his creation, under the terms of his will, of The Johns Hopkins University and its affiliated institutions, including the Applied Physics Laboratory.
NOTE: some special characters may not display properly (any characters within {} are an attempt to place the proper accent above a character)
Reference: 20080718/MPCPages.arcLast Updated: 2008-07-18

Alternate Designations
 1999 JN136 = 1995 BV15 
Ephemeris | Orbit Diagram | Orbital Elements | Physical Parameters | Discovery Circumstances ]
ABOUT SSD CREDITS/AWARDS PRIVACY/COPYRIGHT GLOSSARY LINKS
FirstGov 2013-Jun-20 07:02 UT
(server date/time)  
NASA Home Page
Site Manager:   Donald K. Yeomans
Webmaster  Alan B. Chamberlin